EHI
0 0 0 0 0 0 0 0 0 0 0 0 0 0 0 0 0 0 0 0 0 1 2 1 0 0 0 0 0 0 0 1 2 2 1 0 0 0 0 0 0 0 0
0 0 0 0 0 0 0 0 0 0 0 0 0 0 0 0 0 0 0 0 0 1 1 1 0 0 0 0 0 0 0 0 1 1 1 1 1 0 0 0 0 0 0
0 0 0 0 0 0 0 0 0 0 0 0 0 0 0 0 0 0 0 0 0 0 0 0 0 0 0 0 0 0 0 0 0 0 1 1 1 0 0 0 0 0 0
0 0 0 0 0 0 0 0 0 0 0 0 0 0 0 0 0 0 0 0 0 0 0 0 0 0 0 0 0 0 0 0 0 0 0 1 1 0 0 0 0 0 0
0 0 0 0 0 0 0 0 0 0 0 0 0 0 0 0 0 0 0 0 0 0 0 0 0 0 0 0 0 0 0 0 0 0 0 0 0 0 0 0 0 0 0
0 0 0 0 0 0 0 0 0 0 0 0 0 0 0 0 0 0 0 0 0 0 0 0 0 0 0 0 0 0 0 0 0 0 0 0 0 0 0 0 0 0 0
0 0 0 0 0 0 0 0 0 0 0 0 0 0 0 0 0 0 0 0 0 0 0 0 0 0 0 0 0 0 0 0 0 0 0 0 0 0 0 0 0 0 0
0 0 0 0 0 0 0 0 0 0 0 0 0 0 0 0 0 0 0 0 0 0 0 0 0 0 0 0 0 0 0 0 0 0 0 0 0 0 0 0 0 0 0
0 0 0 0 0 0 0 0 0 0 0 0 0 0 0 0 0 0 0 0 0 0 0 0 0 0 0 0 0 0 0 0 0 0 0 0 0 0 0 0 0 0 0
0 0 0 0 0 0 0 0 0 0 0 0 0 0 0 0 0 0 0 0 0 0 0 0 0 0 0 0 0 0 0 0 0 0 0 0 0 0 0 0 0 0 0
0 0 0 0 0 0 0 0 0 0 0 0 0 0 0 0 0 0 0 0 0 0 0 0 0 0 0 0 0 0 0 0 0 0 0 0 0 0 0 0 0 0 0
0 0 0 0 0 0 0 0 0 0 0 0 0 0 0 0 0 0 0 0 0 0 0 0 0 0 0 0 0 0 0 0 0 0 0 0 0 0 0 0 0 0 0
0 0 0 0 0 0 0 0 0 0 0 0 0 0 0 0 0 0 0 0 0 0 0 0 0 0 0 0 0 0 0 0 0 0 0 0 0 0 0 0 0 0 0
0 0 0 0 0 0 0 0 0 0 0 0 0 0 0 0 0 0 0 0 0 0 0 0 0 0 0 0 0 0 0 0 0 0 0 0 0 0 0 0 0 0 0
0 0 0 0 0 0 0 0 0 0 0 0 0 0 0 0 0 0 0 0 0 0 0 0 0 0 0 0 0 0 0 0 0 0 0 0 0 0 0 0 0 0 0
0 0 0 0 0 0 0 0 0 0 0 0 0 0 0 0 0 0 0 0 0 0 0 0 0 0 0 0 0 0 0 0 0 0 0 0 0 0 0 0 0 0 0
0 0 0 0 0 0 0 0 0 0 0 0 0 0 0 0 0 0 0 0 0 0 0 0 0 0 0 0 0 0 0 0 0 0 0 0 0 0 0 0 0 0 0
0 0 0 0 0 0 0 0 0 0 0 0 0 0 0 0 0 0 0 0 0 0 0 0 0 0 0 0 0 0 0 0 0 0 0 0 0 0 0 0 0 0 0
0 0 0 0 0 0 0 0 0 0 0 0 0 0 0 0 0 0 0 0 0 0 0 0 0 0 0 0 0 0 0 0 0 0 0 0 0 0 0 0 0 0 0
0 0 0 0 0 0 0 0 0 0 0 0 0 0 0 0 0 0 0 0 0 0 0 0 0 0 0 0 0 0 0 0 0 0 0 0 0 0 0 0 0 0 0
0 0 0 0 0 0 0 0 0 0 0 0 0 0 0 0 0 0 0 0 0 0 0 0 0 0 0 0 0 0 0 0 0 0 0 0 0 0 0 0 0 0 0
0 0 0 0 0 0 0 0 0 0 0 0 0 0 0 0 0 0 0 0 0 0 0 0 0 0 0 0 0 0 0 0 0 0 0 0 0 0 0 0 0 0 0
0 0 0 0 0 0 0 0 0 0 0 0 0 0 0 0 0 0 0 0 0 0 0 0 0 0 0 0 0 0 0 0 0 0 0 0 0 0 0 0 0 0 0
0 0 0 0 0 0 0 0 0 0 0 0 0 0 0 0 0 0 0 0 0 0 0 0 0 0 0 0 0 0 0 0 0 0 0 0 0 0 0 0 0 0 0
0 0 0 0 0 0 0 0 0 0 0 0 0 0 0 0 0 0 0 0 0 0 0 0 0 0 0 0 0 0 0 0 0 0 0 0 0 0 0 0 0 0 0
0 0 0 0 0 0 0 0 0 0 0 0 0 0 0 0 0 0 0 0 0 0 0 0 0 0 0 0 0 0 0 0 0 0 0 0 0 0 0 0 0 0 0
Wind_Speed
3 4 3 3 3 3 4 4 4 4 4 4 4 4 4 3 2 2 1 2 2 2 2 2 3 2 2 1 1 0 1 2 3 3 3 3 3 3 4 4 4 4 4
4 3 4 3 3 3 4 3 4 4 3 3 4 4 4 3 2 1 1 1 2 2 2 2 3 3 2 2 1 1 0 1 2 2 2 3 3 4 4 4 4 5 4
4 4 3 3 3 4 4 3 3 3 3 3 4 5 3 3 3 2 1 1 1 1 2 3 3 3 3 3 2 1 1 1 2 2 2 2 2 4 4 5 5 5 5
4 4 3 3 4 3 3 3 3 3 3 3 3 4 4 3 3 2 1 1 1 1 1 3 4 4 4 4 3 2 2 2 1 2 2 2 2 3 4 4 5 5 6
5 4 3 3 4 3 3 4 3 3 3 3 3 4 4 3 3 3 2 1 1 1 0 1 3 4 4 4 4 3 3 3 3 2 2 3 3 3 4 5 6 5 6
5 4 3 4 4 3 3 3 3 3 3 3 4 4 4 4 3 2 3 2 1 1 0 0 0 2 3 4 3 3 3 3 3 3 3 3 4 5 5 5 5 6 6
5 4 3 4 4 3 4 4 3 3 3 3 3 4 4 3 2 2 1 1 1 1 0 1 0 1 1 3 4 4 4 4 4 4 4 5 5 5 6 6 6 6 6
5 4 4 4 4 3 4 4 4 3 3 3 2 3 3 3 2 2 2 1 1 1 1 1 1 1 1 1 2 5 5 5 5 6 6 6 6 5 5 6 7 7 7
4 4 4 3 4 3 3 4 3 3 3 3 2 1 2 2 4 3 2 2 2 2 2 1 2 1 1 1 2 3 5 5 6 7 7 7 7 7 7 6 6 7 7
4 4 4 3 3 3 3 4 4 3 3 3 3 2 2 2 2 3 3 2 3 3 3 3 2 2 2 1 2 3 5 6 7 8 8 8 8 8 8 7 7 7 6
3 4 4 3 3 3 4 4 4 3 2 3 3 3 3 3 3 4 5 4 3 3 3 3 2 2 2 2 2 3 5 6 8 9 9 9 8 8 8 8 8 7 7
3 4 4 3 3 3 3 4 4 4 3 3 3 3 2 3 3 3 4 5 5 3 4 3 3 3 2 2 3 5 5 6 7 9 9 9 9 9 9 9 9 8 8
2 3 4 3 3 3 4 4 4 4 4 4 4 3 3 3 3 4 4 5 6 4 3 3 3 3 3 2 2 5 4 5 7 8 9 9 9 8 8 9 9 9 8
2 3 3 3 4 4 5 4 4 4 4 3 5 4 3 3 3 3 4 4 6 5 4 4 3 3 3 2 3 5 3 6 8 10 10 10 9 8 9 9 9 9 9
3 4 4 4 4 4 4 4 3 4 4 4 4 4 4 3 3 3 3 3 4 6 6 4 3 3 3 3 5 3 3 6 9 10 10 10 9 9 9 10 10 9 9
3 4 4 4 4 4 4 4 4 4 4 4 4 4 4 3 3 3 3 4 4 5 7 4 4 5 5 6 8 5 4 8 10 11 11 11 10 10 10 10 10 10 10
3 3 4 4 5 5 4 4 4 5 5 5 5 5 5 5 4 4 4 4 4 5 7 6 4 5 5 6 6 5 4 4 5 11 12 11 11 11 11 11 10 10 10
3 4 4 4 5 5 5 5 5 5 5 6 5 6 6 5 5 4 4 5 5 5 6 8 6 5 6 6 6 6 6 5 4 9 12 11 11 10 10 10 10 10 10
4 4 4 4 5 5 5 5 5 5 5 6 6 6 7 6 6 5 5 5 5 6 5 7 7 5 5 5 5 6 6 5 5 7 9 9 9 9 9 10 10 10 9
4 4 4 5 5 6 6 6 6 6 6 7 7 7 7 7 7 7 7 6 6 6 6 6 7 6 5 5 4 4 5 4 5 5 7 7 8 9 9 10 10 10 9
5 4 5 5 5 5 6 6 6 7 7 7 7 7 8 10 11 9 7 6 6 6 6 6 6 6 5 4 4 4 5 4 4 4 4 4 4 4 5 8 9 10 10
5 5 5 5 6 6 11 13 10 7 7 7 8 8 8 9 11 13 14 13 11 8 7 7 6 7 7 5 4 5 5 5 5 3 3 4 3 4 4 4 8 10 11
5 5 5 5 6 8 13 14 14 8 6 7 8 8 8 8 10 7 10 13 12 14 14 9 8 8 7 6 6 6 6 6 6 3 3 5 3 5 5 5 9 10 11
5 5 6 6 6 8 13 14 14 8 6 7 8 8 8 8 8 9 8 8 8 9 10 8 8 8 8 6 6 7 7 6 6 4 3 5 4 4 5 4 8 10 10
5 6 6 6 6 8 12 14 13 6 6 7 8 8 9 8 12 14 9 8 8 8 11 13 13 12 14 14 10 5 5 5 7 5 2 4 4 3 4 4 6 9 9
6 6 7 6 6 7 11 13 13 5 6 6 6 7 11 12 14 14 8 7 8 8 7 8 8 9 9 9 12 8 6 6 6 5 3 3 3 2 4 3 3 3 5
Wind_Direction
7 0 355 359 356 355 351 347 347 348 349 347 341 339 337 337 337 4 22 31 18 6 347 342 344 337 328 317 306 117 107 118 122 134 149 161 168 166 164 153 146 148 152
6 359 355 351 356 354 346 344 343 343 339 340 329 327 331 326 325 346 347 348 348 335 321 308 316 313 308 312 279 229 182 174 162 147 148 175 188 189 186 181 170 160 161
7 357 353 346 351 348 344 342 341 337 337 337 328 323 325 323 314 316 319 320 309 317 311 305 300 306 299 293 290 271 254 243 209 194 187 173 188 188 189 193 192 175 164
7 357 349 347 345 347 343 340 346 342 337 335 327 320 315 310 295 288 293 296 285 291 316 328 318 311 296 290 279 278 277 276 269 233 217 202 198 190 187 191 189 187 185
6 2 349 346 345 345 343 339 347 338 332 332 322 315 307 301 298 296 278 265 252 252 235 317 325 330 322 299 285 280 274 275 275 268 249 229 217 211 202 195 197 190 187
8 3 355 351 345 340 337 336 333 333 326 325 320 315 298 281 274 271 265 266 265 250 255 330 284 313 324 319 313 296 289 284 285 277 266 249 231 221 216 208 201 200 199
10 10 1 350 347 341 336 337 334 331 334 340 333 319 298 274 266 268 268 270 293 309 3 313 274 271 288 311 315 298 282 280 280 280 275 262 246 232 225 217 210 209 206
8 7 9 356 351 345 342 340 341 330 327 348 332 321 315 319 333 317 321 294 282 308 294 287 276 274 260 243 291 294 282 274 276 274 271 267 255 244 239 226 216 212 211
6 4 4 359 351 349 334 332 333 335 321 320 319 303 302 301 324 301 298 314 325 310 292 287 275 278 280 266 264 282 287 282 273 270 269 264 259 253 245 236 224 216 216
1 3 357 354 349 345 338 330 341 333 320 308 308 294 286 290 288 307 306 317 316 313 300 300 295 290 294 282 278 290 285 279 271 266 265 262 259 257 249 240 233 227 224
358 358 353 349 344 341 341 333 328 327 319 307 303 302 302 302 277 270 286 294 299 296 303 299 284 271 284 280 269 282 283 275 269 267 266 263 259 255 254 248 241 237 234
345 352 349 349 342 340 334 326 317 310 306 298 294 289 287 284 286 286 285 294 292 288 295 296 289 273 267 261 270 289 287 279 272 269 265 262 260 258 256 256 250 245 241
333 332 340 336 331 332 326 319 312 301 299 299 291 286 285 281 283 282 281 286 290 291 289 288 281 276 275 268 265 274 273 280 279 274 269 267 267 267 266 262 257 255 249
312 319 327 324 323 320 320 318 308 302 301 300 301 299 291 285 283 276 273 284 291 289 280 276 288 286 286 274 268 269 260 270 274 273 270 268 270 271 270 268 265 262 258
313 323 322 321 319 317 312 308 301 306 304 299 294 294 289 284 281 277 273 267 271 282 282 278 283 295 305 299 281 260 246 268 272 271 268 266 264 263 265 262 261 261 260
315 311 312 314 314 313 309 304 303 303 307 301 292 292 292 290 282 279 273 270 265 268 277 281 287 294 297 294 288 279 258 274 272 270 266 264 261 256 256 256 255 255 254
306 306 307 308 308 307 305 302 302 303 300 299 297 295 291 290 283 274 268 263 262 261 271 282 282 287 288 292 289 283 271 258 257 265 264 261 258 253 251 250 251 250 250
302 304 305 305 304 305 304 301 298 300 297 297 296 294 290 289 286 281 273 266 262 259 263 277 280 281 280 280 282 279 276 268 259 266 262 258 255 252 251 250 249 250 251
297 300 301 300 300 300 300 298 296 294 292 291 290 286 285 283 281 280 275 270 266 266 262 268 275 275 276 274 282 281 275 266 266 268 266 261 256 255 254 252 250 248 247
295 294 297 297 297 298 297 294 296 294 289 286 285 282 280 277 276 277 272 267 267 265 262 264 270 271 273 270 270 270 279 267 266 271 268 265 263 263 260 256 251 248 247
298 294 293 294 294 293 289 290 287 289 287 286 285 283 280 280 279 279 277 272 268 263 261 261 264 268 267 267 265 269 272 276 275 261 258 259 257 253 252 253 250 246 247
291 290 288 288 290 295 299 300 299 291 289 289 289 287 283 281 283 287 288 287 281 273 268 263 264 260 263 262 267 266 272 270 276 264 261 267 256 255 252 241 248 250 248
291 288 286 284 284 288 297 300 301 303 296 290 289 290 291 289 291 281 284 287 285 282 275 268 264 264 266 260 261 265 266 271 267 258 269 279 272 265 260 260 258 253 250
283 281 281 279 281 288 298 300 304 304 292 290 289 286 285 285 284 284 278 278 275 275 273 268 259 261 263 260 251 257 265 276 279 269 259 271 273 272 276 267 261 258 257
281 280 281 279 280 287 296 299 305 294 289 287 287 289 289 284 288 291 286 281 281 279 280 277 271 268 269 269 265 260 258 266 274 273 253 252 264 280 282 272 261 257 258
283 289 291 285 279 279 291 301 305 292 290 291 290 289 291 292 293 293 284 278 279 281 285 288 286 279 273 271 268 252 243 253 267 271 250 246 261 281 286 277 265 260 260